87X YBHM-YBSU

Flight info

Callsign 87X
Flight time N/A
Altitude 19000
Route OVRON B462 MK V153 MUNAR/N0340F390 Y61 RUROX/N0363F190 W727 SUSGI W534 SU
Aircraft E50P/L-SBDFGRWY/LB2

Departure

Time 2026-04-18 03:21
Airport Hamilton Island Airport (YBHM)

Arrival

Time N/A
Airport Sunshine Coast Airport (YBSU)
Time Latitude Longitude Altitude Speed Heading
2026-04-18 03:09 -20.35584 148.94889 21 ft 0 kts 177°
2026-04-18 03:13 -20.35587 148.94888 23 ft 1 kts 216°
2026-04-18 03:14 -20.35577 148.94874 23 ft 7 kts 329°
2026-04-18 03:14 -20.35494 148.94826 21 ft 19 kts 337°
2026-04-18 03:14 -20.35427 148.94871 20 ft 13 kts 53°
2026-04-18 03:14 -20.35361 148.94860 19 ft 13 kts 320°
2026-04-18 03:15 -20.35289 148.94798 18 ft 13 kts 322°
2026-04-18 03:15 -20.35224 148.94743 16 ft 0 kts 324°
2026-04-18 03:15 -20.35210 148.94732 16 ft 7 kts 323°
2026-04-18 03:16 -20.35140 148.94685 15 ft 13 kts 359°
2026-04-18 03:16 -20.35081 148.94659 15 ft 10 kts 238°
2026-04-18 03:16 -20.35137 148.94672 15 ft 6 kts 140°
2026-04-18 03:16 -20.35138 148.94673 15 ft 0 kts 140°
2026-04-18 03:17 -20.35158 148.94690 15 ft 9 kts 144°
2026-04-18 03:18 -20.35238 148.94755 16 ft 19 kts 143°
2026-04-18 03:18 -20.35369 148.94855 19 ft 27 kts 144°
2026-04-18 03:18 -20.35411 148.94887 19 ft 6 kts 119°
2026-04-18 03:18 -20.35399 148.94955 18 ft 13 kts 51°
2026-04-18 03:19 -20.35328 148.95001 17 ft 14 kts 336°
2026-04-18 03:19 -20.35268 148.94955 17 ft 13 kts 320°
2026-04-18 03:19 -20.35234 148.94873 16 ft 11 kts 302°
2026-04-18 03:19 -20.35246 148.94765 17 ft 16 kts 317°
2026-04-18 03:20 -20.35177 148.94708 15 ft 18 kts 324°
2026-04-18 03:20 -20.35087 148.94653 15 ft 11 kts 226°
2026-04-18 03:20 -20.35131 148.94663 15 ft 14 kts 131°
2026-04-18 03:20 -20.35248 148.94761 17 ft 43 kts 143°
2026-04-18 03:21 -20.35918 148.95299 131 ft 125 kts 142°
2026-04-18 03:21 -20.36392 148.95701 508 ft 142 kts 141°
2026-04-18 03:21 -20.37271 148.96433 1146 ft 170 kts 143°
2026-04-18 03:21 -20.38296 148.97225 1759 ft 196 kts 147°
2026-04-18 03:22 -20.39624 148.97648 2631 ft 201 kts 171°
2026-04-18 03:22 -20.40997 148.97876 3510 ft 201 kts 169°
2026-04-18 03:22 -20.42442 148.98217 3797 ft 224 kts 166°
2026-04-18 03:22 -20.44036 148.98657 3864 ft 247 kts 165°
2026-04-18 03:23 -20.45713 148.99118 4307 ft 248 kts 165°
2026-04-18 03:23 -20.47365 148.99569 4752 ft 249 kts 165°
2026-04-18 03:23 -20.49053 149.00029 5140 ft 251 kts 165°
2026-04-18 03:23 -20.50760 149.00494 5501 ft 254 kts 165°
2026-04-18 03:24 -20.52477 149.00963 5868 ft 255 kts 165°
2026-04-18 03:24 -20.54206 149.01433 6227 ft 257 kts 165°
2026-04-18 03:24 -20.55951 149.01911 6565 ft 259 kts 165°
2026-04-18 03:24 -20.57689 149.02384 6889 ft 261 kts 165°
2026-04-18 03:25 -20.59461 149.02869 7214 ft 263 kts 166°
2026-04-18 03:25 -20.61250 149.03356 7537 ft 265 kts 166°
2026-04-18 03:25 -20.63045 149.03848 7870 ft 267 kts 166°
2026-04-18 03:25 -20.64852 149.04340 8185 ft 269 kts 166°
2026-04-18 03:26 -20.66671 149.04838 8492 ft 271 kts 166°
2026-04-18 03:26 -20.68485 149.05333 8792 ft 273 kts 167°
2026-04-18 03:26 -20.70332 149.05838 9094 ft 275 kts 167°
2026-04-18 03:26 -20.72194 149.06348 9397 ft 276 kts 167°
2026-04-18 03:27 -20.74068 149.06860 9697 ft 278 kts 167°
2026-04-18 03:27 -20.75925 149.07369 9982 ft 280 kts 167°
2026-04-18 03:27 -20.77815 149.07885 10249 ft 281 kts 167°
2026-04-18 03:27 -20.79715 149.08406 10513 ft 282 kts 167°
2026-04-18 03:28 -20.81625 149.08928 10786 ft 284 kts 168°
2026-04-18 03:28 -20.83548 149.09456 11050 ft 285 kts 168°
2026-04-18 03:28 -20.85478 149.09983 11313 ft 286 kts 168°
2026-04-18 03:28 -20.87390 149.10508 11573 ft 288 kts 168°
2026-04-18 03:29 -20.89335 149.11041 11836 ft 289 kts 168°
2026-04-18 03:29 -20.91295 149.11578 12095 ft 290 kts 168°
2026-04-18 03:29 -20.93268 149.12119 12355 ft 292 kts 169°
2026-04-18 03:29 -20.95239 149.12660 12611 ft 293 kts 169°
2026-04-18 03:30 -20.97195 149.13197 12865 ft 294 kts 169°
2026-04-18 03:30 -20.99183 149.13742 13118 ft 296 kts 169°
2026-04-18 03:30 -21.01198 149.14295 13221 ft 303 kts 169°
2026-04-18 03:30 -21.03271 149.14862 13237 ft 310 kts 169°
2026-04-18 03:31 -21.05363 149.15439 13391 ft 311 kts 169°
2026-04-18 03:31 -21.07460 149.16016 13535 ft 311 kts 169°
2026-04-18 03:31 -21.09566 149.16595 13675 ft 312 kts 169°
2026-04-18 03:31 -21.11647 149.17167 13808 ft 313 kts 169°
2026-04-18 03:32 -21.13761 149.17747 13930 ft 313 kts 169°
2026-04-18 03:32 -21.15875 149.18331 14059 ft 314 kts 169°
2026-04-18 03:32 -21.17986 149.18927 14167 ft 315 kts 168°
2026-04-18 03:32 -21.20102 149.19575 14279 ft 315 kts 168°
2026-04-18 03:33 -21.22223 149.20191 14403 ft 316 kts 169°
2026-04-18 03:33 -21.24350 149.20816 14515 ft 317 kts 168°
2026-04-18 03:33 -21.26455 149.21447 14619 ft 318 kts 168°
2026-04-18 03:33 -21.28591 149.22085 14736 ft 318 kts 168°